Theta_e
302 302 302 301 301 302 302 302 303 303 303 303 303 303 300 299 295 292 292 293 294 297 298 300 300 301 302 301 301 302 302 302 301 303 302 303 303 303 304 307 308 309 309 310 310 309 309 309 309 308 308 308 307 308 308 307 308 309 310 311 312 313 312 312 312 313 313 314 314 314 312 311 310 309
298 298 298 299 298 299 299 299 300 300 301 301 301 300 301 301 295 294 292 292 296 297 299 300 301 298 299 301 302 301 301 299 300 301 302 303 303 302 302 304 306 306 308 308 307 307 308 308 307 307 307 307 307 308 307 308 308 309 311 312 312 312 312 311 311 311 312 312 312 312 311 310 308 308
295 293 293 294 294 295 295 295 296 297 298 298 299 300 300 300 300 297 296 292 295 298 296 296 296 299 300 300 299 300 300 299 300 301 301 301 299 297 299 299 302 304 306 307 307 307 307 307 307 307 306 307 306 307 307 307 307 308 308 310 310 311 311 310 309 310 311 311 311 310 309 308 308 308
291 289 288 288 288 289 289 290 291 291 292 295 296 295 296 297 296 295 293 291 290 293 293 294 295 296 297 297 296 296 298 298 296 299 299 300 297 299 300 300 301 302 304 305 305 305 305 306 306 306 306 306 306 305 305 305 306 306 307 307 309 309 308 308 309 310 309 310 309 308 308 308 307 307
288 286 287 287 287 287 288 288 288 289 289 289 291 292 293 293 294 294 292 290 289 291 293 293 293 294 294 293 294 293 294 295 296 296 297 297 297 298 299 299 298 299 301 302 302 303 304 304 304 305 304 304 304 303 304 304 304 304 305 305 305 307 307 308 309 309 308 308 308 307 307 307 306 305
284 285 287 287 286 285 287 288 287 287 287 288 290 290 291 291 291 293 291 290 289 288 290 290 290 291 293 291 294 292 291 293 294 293 294 296 297 297 297 297 298 298 299 300 301 302 303 303 303 303 302 302 301 302 304 302 302 302 303 303 303 303 305 306 307 308 307 308 308 307 306 305 304 303
284 284 284 286 285 285 285 286 286 285 285 285 287 288 289 290 291 292 293 291 288 288 288 290 290 290 290 290 291 291 291 292 292 291 292 293 294 295 295 295 296 297 299 301 301 302 302 302 302 302 301 301 301 301 301 301 300 301 301 301 302 302 302 304 306 308 307 307 307 306 304 303 303 301
284 284 284 285 285 284 284 285 285 284 283 284 284 285 286 287 288 289 290 292 290 289 288 289 289 289 289 290 291 291 290 291 290 291 292 292 292 292 292 293 294 295 298 299 299 300 300 301 300 300 300 299 299 300 300 299 299 299 299 299 300 300 301 303 306 306 305 305 305 304 302 301 300 300
284 284 284 285 284 284 284 284 284 284 284 284 284 284 285 285 286 286 288 289 289 289 287 288 290 290 289 290 290 289 289 289 289 289 289 290 291 291 291 291 292 293 296 296 297 297 298 299 299 299 299 298 298 298 298 298 298 297 298 297 298 300 303 304 303 302 302 302 301 300 300 300 300 299
283 283 284 284 284 284 283 283 284 284 284 284 284 284 285 285 285 285 285 287 287 288 288 288 287 289 289 288 288 289 287 287 288 289 290 290 290 289 289 290 290 290 290 289 290 292 294 295 297 298 297 297 297 296 297 296 296 296 296 297 299 302 302 301 301 300 300 299 298 298 299 299 299 297
283 283 283 283 283 283 283 283 284 284 284 284 284 284 284 285 284 285 285 285 286 286 286 287 288 288 288 288 286 288 289 288 288 287 287 288 290 289 288 288 290 289 288 290 292 292 291 292 291 292 293 294 294 294 295 295 294 294 295 299 300 299 299 299 298 298 297 297 297 296 296 296 296 296
283 283 283 283 283 284 283 283 283 283 283 284 283 284 283 284 284 284 284 285 285 285 285 286 286 286 287 287 288 288 287 286 286 286 286 286 287 288 290 290 290 290 290 287 288 290 291 290 291 292 292 293 293 293 293 293 292 292 295 298 299 298 297 297 296 296 296 295 295 295 294 293 294 295
283 282 282 283 283 283 284 285 286 286 286 284 283 284 284 283 283 283 283 283 283 284 285 285 285 285 285 285 285 284 284 284 284 286 287 286 287 288 288 290 291 291 290 289 289 288 287 286 285 286 285 286 288 289 290 290 291 294 297 298 297 296 296 295 295 295 294 294 293 293 292 292 292 293
282 282 282 282 283 284 284 284 285 287 287 287 286 285 284 284 283 283 283 283 283 283 283 283 284 283 283 284 284 284 285 286 287 286 286 286 287 288 288 289 290 291 288 288 287 287 287 286 286 286 285 286 286 286 287 289 292 294 297 297 296 295 295 295 294 293 293 292 291 291 291 291 291 291
281 281 281 280 281 282 282 282 285 286 287 287 287 287 287 287 285 283 282 283 283 283 283 284 284 283 283 284 285 285 286 286 286 286 286 286 286 285 285 283 288 290 288 286 286 287 287 286 285 286 285 286 286 286 287 292 294 294 296 295 294 294 294 293 292 291 291 290 290 290 290 290 289 289
280 280 280 280 280 280 281 281 281 283 284 285 286 286 286 287 287 288 285 283 283 283 283 283 283 284 283 284 286 286 286 286 286 286 286 286 285 284 284 285 284 287 286 286 285 286 286 285 285 285 286 285 285 287 290 293 294 295 295 294 294 293 292 291 291 290 290 289 289 289 289 288 288 288
279 279 279 279 280 280 281 281 281 281 281 283 285 285 286 286 286 287 287 287 286 285 284 283 283 284 284 284 284 286 286 287 285 286 285 286 286 285 284 285 286 288 287 285 285 285 286 283 284 284 285 283 284 286 290 294 295 295 294 293 293 292 291 291 290 290 289 289 288 288 288 287 287 286
278 278 278 279 279 279 279 279 280 281 282 282 282 282 282 282 283 285 285 286 286 286 285 284 283 284 285 284 285 286 288 286 285 285 285 286 285 285 285 286 287 288 289 286 286 284 286 283 283 283 283 282 283 285 289 294 295 294 293 292 291 291 290 290 289 288 288 288 287 287 287 286 285 284
278 278 279 279 279 279 279 280 281 281 281 281 281 281 281 281 282 282 283 283 284 284 284 284 284 285 286 286 286 286 287 286 286 285 284 285 284 285 286 286 287 287 289 287 286 282 286 281 281 280 279 281 283 285 288 293 293 293 292 291 291 290 289 289 288 288 287 287 286 286 285 285 284 283
278 278 278 278 278 278 278 280 283 283 282 282 281 281 281 282 282 282 284 285 286 285 285 285 285 285 285 287 286 286 286 286 286 286 286 285 284 284 283 283 285 285 288 286 285 283 284 280 280 278 279 281 282 284 285 291 292 292 291 291 290 289 289 288 288 287 287 286 286 285 285 284 283 283
278 278 278 278 278 278 278 281 283 284 284 281 281 280 280 281 281 281 283 285 286 286 286 286 287 288 288 288 288 288 288 287 286 284 282 281 282 281 280 281 281 282 285 284 285 284 283 279 277 276 277 278 279 280 283 286 290 291 290 290 289 289 288 288 287 287 286 286 285 285 284 283 282 281
277 278 279 279 278 278 278 282 283 284 283 280 280 280 280 280 280 281 282 282 283 285 286 286 286 286 286 286 287 287 288 288 286 283 280 282 283 280 281 280 281 283 284 285 286 282 281 277 277 275 275 276 275 274 277 285 287 289 289 289 288 288 288 287 287 286 285 285 284 284 283 282 281 277
277 277 278 279 279 279 280 283 283 284 283 281 280 280 279 279 279 280 281 281 282 282 282 282 283 282 283 283 284 284 286 287 286 285 284 284 282 280 281 281 281 280 282 285 285 281 277 275 277 277 275 273 274 274 273 280 285 285 285 285 285 287 286 286 286 285 285 284 284 283 282 280 276 272
276 277 276 277 279 281 282 283 283 283 284 281 281 280 279 278 278 281 281 282 282 281 281 281 281 281 282 282 283 283 283 284 284 285 284 284 283 282 281 282 282 280 282 284 285 283 278 277 276 278 276 274 274 272 273 274 279 282 283 283 283 285 285 284 284 284 284 283 283 282 281 279 275 271
276 275 275 276 279 281 282 283 283 283 283 283 280 280 279 279 281 282 280 281 281 281 281 281 281 281 282 282 282 283 283 284 284 284 285 285 285 284 282 282 282 282 285 285 286 282 275 276 276 276 272 272 272 271 271 271 273 276 280 281 281 281 280 280 280 280 282 282 282 281 279 278 276 272
275 275 275 276 278 281 282 282 282 282 282 282 279 279 282 282 282 280 280 280 280 280 280 280 281 281 281 281 281 282 283 283 284 284 285 285 285 285 285 283 282 281 283 283 287 282 277 275 277 275 273 272 271 271 270 269 270 271 274 276 277 277 277 276 276 276 277 277 277 277 276 277 276 275
275 276 276 277 279 281 281 281 281 281 281 279 278 281 281 281 281 280 278 279 279 280 279 279 279 279 279 280 281 282 282 282 283 284 284 283 281 280 281 281 281 279 279 280 284 282 280 277 278 276 274 273 271 270 270 269 268 270 271 272 273 273 274 273 272 272 274 274 275 278 278 277 277 276
275 275 276 278 280 280 279 279 279 279 278 277 279 280 280 280 279 277 278 279 278 277 277 278 278 279 280 281 281 281 282 282 281 279 278 277 276 275 275 276 276 275 275 278 281 282 280 278 277 278 276 273 271 270 268 268 269 269 267 269 270 270 271 271 271 271 270 271 272 273 273 272 274 274
276 278 280 279 279 278 278 278 277 276 276 278 278 279 279 277 275 276 278 276 274 274 276 277 278 278 279 280 281 282 282 280 278 278 278 276 274 272 272 273 272 272 272 273 277 281 280 279 277 277 276 275 273 272 270 268 267 267 268 267 266 268 269 269 269 269 268 269 269 270 268 269 269 271
279 279 278 277 277 276 275 273 272 272 273 277 277 277 276 275 276 277 275 273 273 274 277 277 277 277 279 279 280 280 279 277 278 278 277 275 275 274 274 274 274 272 272 272 273 278 279 278 277 276 275 274 274 272 270 268 267 267 269 267 266 267 268 268 268 268 267 266 266 266 266 267 267 267
276 275 274 273 275 274 275 275 275 274 274 273 273 273 274 276 276 274 273 273 274 276 275 275 276 277 278 279 279 280 280 279 279 277 274 274 274 273 272 271 271 270 270 272 272 273 276 276 277 276 274 273 272 271 270 270 267 267 267 267 267 265 265 267 267 266 266 266 265 265 266 266 266 267
274 272 272 271 270 270 270 270 270 270 271 271 272 273 274 273 273 273 275 276 275 274 274 275 276 277 277 277 278 280 279 278 278 276 273 273 273 271 270 270 269 267 269 269 270 271 272 273 275 274 274 273 270 269 270 269 267 267 265 266 266 266 266 265 265 265 265 265 264 263 264 265 265 265
271 269 267 267 267 268 268 268 269 270 270 270 270 270 270 270 270 271 272 271 271 272 273 274 274 275 276 277 279 279 279 278 277 273 272 272 272 270 270 269 268 268 267 266 267 268 269 269 269 270 269 270 271 270 269 266 266 266 265 265 265 265 265 265 265 264 264 264 262 262 262 263 264 265
267 266 266 266 266 267 267 267 268 268 268 267 267 267 268 267 267 268 269 270 270 271 272 273 274 275 276 277 278 278 278 278 278 274 273 271 271 270 269 268 267 267 266 266 266 267 268 269 269 269 269 269 269 269 269 267 265 266 265 265 265 264 264 264 264 264 264 263 262 261 261 261 263 264
265 265 265 266 266 267 266 266 266 266 266 266 265 265 265 265 266 267 268 268 270 270 271 272 274 275 276 276 277 277 278 277 277 274 271 270 270 270 269 267 266 266 266 265 266 267 268 268 268 267 267 267 267 267 271 269 266 265 265 264 264 263 263 264 263 263 263 262 263 261 260 261 261 263
264 265 265 265 265 265 265 265 265 265 264 264 264 264 264 264 266 266 266 268 269 269 270 272 273 274 275 276 277 277 277 276 275 272 270 269 269 268 268 267 266 266 266 266 266 267 268 268 268 267 265 265 264 263 262 269 269 266 264 262 263 263 263 263 263 262 262 261 262 261 260 259 259 261
262 263 264 264 264 264 263 263 263 263 263 263 263 263 263 264 265 266 267 268 268 270 271 272 273 274 275 276 276 276 276 275 272 271 269 269 268 268 266 265 265 265 265 265 266 267 268 268 268 268 266 265 264 261 260 262 268 269 265 263 262 262 261 261 261 260 261 261 260 261 260 260 260 261
261 262 263 263 263 262 263 263 263 263 262 262 262 263 263 264 265 266 267 267 268 269 271 272 272 273 274 275 275 275 274 273 271 270 269 268 267 266 265 264 264 264 264 265 266 266 268 268 268 268 268 266 262 259 259 261 263 265 268 265 262 261 262 261 260 259 258 260 260 260 261 260 260 260
261 262 262 262 262 261 261 262 262 262 262 262 262 263 263 263 264 264 265 265 267 268 269 270 271 272 273 274 274 273 272 271 270 269 268 268 267 266 265 264 264 264 264 264 265 266 267 268 268 268 268 267 264 263 262 261 260 263 266 267 263 261 261 261 259 259 258 258 258 259 259 261 265 267
261 262 261 261 261 261 261 261 261 262 262 262 262 263 263 263 263 263 264 265 265 266 267 268 270 272 272 273 273 272 271 270 269 269 268 268 267 266 264 264 264 264 264 264 264 265 264 262 262 263 263 263 264 264 264 263 263 264 264 266 266 264 262 261 259 258 258 259 259 258 257 258 256 257
261 260 260 261 260 261 261 261 261 261 262 262 262 263 262 262 262 263 263 264 265 264 265 267 269 270 271 271 272 271 270 270 269 268 268 267 266 265 265 265 263 264 264 264 264 261 260 261 264 266 265 265 265 266 264 261 259 260 262 264 267 267 266 264 261 260 258 258 258 257 256 256 255 254
260 260 260 260 260 260 260 260 260 261 261 261 261 261 261 262 262 264 264 264 263 264 264 266 268 269 270 271 271 270 269 269 268 267 267 266 265 265 265 264 263 264 264 263 261 259 261 263 265 265 265 266 266 264 261 259 258 259 260 261 263 267 268 266 266 264 260 258 257 255 253 253 253 253
260 259 259 260 260 260 260 260 260 260 260 261 261 261 261 261 262 262 262 262 262 263 264 265 267 268 269 270 270 270 269 269 268 267 266 266 265 264 263 264 264 263 261 259 260 261 262 263 265 265 264 263 262 263 260 259 259 259 259 259 259 260 263 268 268 267 267 266 265 260 255 255 255 252
259 259 259 259 259 259 260 260 260 261 261 261 261 261 261 261 262 262 262 262 262 263 264 264 266 267 268 269 270 269 269 268 267 266 266 265 265 265 264 263 261 261 261 260 260 261 261 261 262 263 262 261 262 261 259 259 259 259 259 258 259 260 259 260 262 267 267 268 268 267 267 267 266 265
259 259 259 259 259 259 260 260 261 261 261 261 262 262 262 262 262 262 262 262 263 263 264 264 265 266 268 269 269 268 268 269 267 266 266 265 265 264 263 262 261 261 260 261 260 260 260 260 261 261 260 261 261 261 260 260 259 258 258 258 257 257 256 257 259 259 258 258 264 267 268 268 268 268
Wind_Speed
6 5 6 6 5 4 5 4 4 5 5 5 6 5 6 7 8 9 11 20 8 8 4 6 3 4 7 5 4 7 8 9 11 8 8 9 10 14 18 20 18 18 18 18 21 25 27 25 17 17 20 23 26 28 29 30 28 26 27 27 28 29 30 29 29 28 25 18 17 20 23 27 30 31
4 3 3 3 4 4 4 4 4 4 4 4 4 5 5 5 8 7 11 16 12 9 9 4 6 3 4 7 9 5 6 9 11 8 11 11 11 16 17 15 17 18 21 23 25 27 25 22 21 22 22 23 27 29 31 28 29 27 27 28 27 28 29 29 27 28 18 16 21 22 24 26 26 26
3 2 2 2 3 4 4 5 5 4 5 5 5 5 5 6 7 10 10 15 14 1 10 9 2 8 12 7 6 9 8 11 14 11 11 11 14 17 15 17 18 20 23 23 23 23 24 23 23 25 24 25 28 28 29 28 28 27 28 28 28 27 28 28 28 27 19 18 19 21 23 24 24 26
2 3 3 3 4 4 4 4 4 4 4 4 5 5 6 6 6 8 9 12 18 15 8 13 13 7 11 12 9 10 10 9 14 10 10 11 15 12 11 15 18 19 25 25 21 21 23 23 24 23 25 28 30 31 28 29 28 27 26 26 26 27 27 28 27 26 20 21 22 22 23 24 25 25
2 3 4 4 5 4 5 5 5 5 5 4 5 5 5 6 5 7 8 11 16 18 10 7 11 12 9 14 11 9 11 10 9 11 10 8 9 11 11 11 16 19 20 21 22 22 22 23 23 23 26 25 26 28 27 28 27 27 26 25 25 25 28 27 29 26 24 23 25 25 25 26 26 24
4 3 5 6 5 4 5 6 6 5 5 4 5 5 5 6 6 5 8 10 13 19 18 15 8 10 6 14 14 10 9 13 12 12 11 9 10 11 11 11 12 18 19 20 23 23 25 24 22 23 23 22 25 26 27 26 27 26 26 25 24 26 28 30 28 26 25 24 25 26 26 25 26 26
4 4 4 6 5 4 6 6 6 5 5 4 5 7 5 7 7 7 8 10 13 15 18 16 16 14 9 9 15 12 9 10 11 14 14 12 11 11 10 10 11 16 21 23 21 23 22 22 23 22 24 24 24 24 25 26 25 25 25 26 27 28 30 29 28 23 23 23 24 24 25 26 24 22
4 5 6 7 5 5 6 7 7 6 5 5 5 6 6 7 9 8 7 9 11 11 16 17 16 14 13 15 12 11 10 12 12 11 13 11 12 12 10 10 11 15 23 20 22 23 24 23 21 22 24 24 26 25 24 24 25 25 26 28 29 29 30 30 21 21 19 21 23 24 26 24 23 23
4 5 5 7 6 5 7 9 7 8 9 7 6 7 8 7 8 7 7 8 9 12 16 16 14 14 12 15 15 11 11 13 11 9 11 12 13 12 11 9 11 16 22 21 22 23 26 23 22 23 23 25 25 24 25 25 25 25 26 27 29 33 26 22 21 20 20 22 23 23 23 24 23 24
4 5 6 7 6 6 7 9 9 8 9 9 9 8 9 9 8 9 9 8 9 11 13 14 15 15 15 18 14 13 7 10 14 13 14 14 12 10 11 10 9 8 8 7 10 14 19 22 26 23 23 24 25 24 22 23 23 23 24 29 28 18 18 17 18 19 19 20 20 21 22 23 24 23
5 5 6 6 6 7 7 8 10 10 10 9 10 9 9 11 9 10 9 8 9 10 13 12 12 15 14 13 19 15 12 13 11 13 13 15 12 10 9 12 9 8 9 11 17 15 16 17 15 18 20 21 22 23 22 21 21 21 23 17 13 13 15 17 19 20 18 17 18 21 23 23 22 20
5 6 6 6 7 7 8 8 9 8 10 10 12 9 6 9 10 11 10 10 9 10 11 12 14 12 12 13 10 11 12 12 10 7 9 13 14 14 13 13 14 11 10 8 8 12 13 14 20 19 19 23 23 22 22 21 20 22 18 9 10 16 19 20 19 19 17 21 22 22 22 20 18 19
6 6 5 5 6 8 11 14 14 13 12 11 12 13 9 9 9 11 11 11 10 10 11 14 11 12 14 14 14 15 13 12 13 12 11 14 13 13 14 15 13 12 11 10 10 9 8 8 10 9 8 10 11 13 15 14 22 19 17 15 19 20 21 23 22 22 24 22 22 22 21 20 18 19
6 6 6 5 9 12 14 14 15 15 16 15 12 12 12 12 11 12 12 12 10 10 12 13 13 15 15 15 14 14 14 12 12 13 13 15 14 13 14 13 11 9 8 10 11 9 7 7 9 7 8 10 7 7 8 8 8 12 19 18 18 20 21 22 24 24 23 23 22 21 20 19 19 18
8 7 5 5 7 9 10 10 12 12 15 17 18 19 18 15 13 13 14 14 13 14 13 13 14 14 16 17 15 14 16 14 13 12 11 13 13 13 16 19 12 7 8 6 9 9 5 6 8 8 7 9 7 7 8 13 12 12 17 20 20 20 22 24 24 24 24 23 22 21 21 20 20 19
6 8 8 5 4 5 7 8 9 10 13 17 18 19 19 19 19 17 14 14 14 13 14 15 14 14 16 16 15 13 11 12 12 11 12 13 13 15 14 13 15 7 2 7 9 11 3 6 7 8 9 7 6 8 12 16 18 18 19 21 22 24 25 25 25 24 24 23 22 22 21 21 20 20
6 7 9 8 5 3 9 10 9 11 12 17 19 18 18 17 18 18 21 20 16 14 15 16 18 15 15 16 14 13 15 14 18 17 14 14 15 14 15 14 14 15 5 7 11 13 8 6 7 8 8 4 5 7 13 19 22 22 22 23 24 25 25 25 25 24 24 23 23 22 22 22 21 21
6 7 8 9 10 7 5 6 8 11 13 14 14 14 13 13 14 17 19 18 20 17 14 15 17 17 16 17 16 16 16 17 16 16 17 13 13 15 17 17 18 15 11 13 12 11 11 4 6 8 5 2 5 6 10 21 22 24 24 25 26 26 26 26 26 25 24 24 23 23 23 22 21 20
6 7 7 8 9 10 10 9 13 13 14 15 15 15 16 15 14 14 13 12 13 13 13 14 16 17 16 16 17 17 17 17 17 15 18 20 20 19 18 18 17 15 12 12 9 12 10 2 5 6 1 3 4 4 9 20 24 25 26 27 26 26 26 26 26 25 25 24 23 23 22 21 20 20
5 5 7 9 11 12 12 14 22 19 16 14 16 17 16 17 15 14 13 22 23 19 17 15 16 16 20 23 22 20 18 16 15 15 14 14 15 15 16 16 13 13 9 6 9 6 8 2 5 2 1 3 3 4 3 16 23 25 26 27 27 27 27 26 26 26 25 24 24 23 22 21 21 20
5 5 7 9 11 12 11 18 25 24 22 14 15 16 17 16 16 16 14 20 27 30 32 33 33 31 33 30 33 31 32 22 17 13 13 14 12 15 15 15 14 14 11 2 7 6 9 2 4 2 1 2 2 4 4 3 19 24 25 27 27 27 27 27 26 26 25 25 24 23 23 22 20 21
6 6 10 10 9 11 13 23 27 27 21 14 14 14 16 18 16 15 13 15 15 22 26 25 27 28 27 30 29 28 27 27 21 14 16 16 15 15 15 16 12 13 13 9 6 4 5 3 2 3 1 3 3 5 6 2 10 20 22 26 26 27 26 26 26 26 25 25 24 23 23 22 19 12
6 5 7 13 15 16 20 27 26 28 22 15 13 14 15 15 15 15 15 15 16 15 17 18 18 18 18 16 14 15 25 25 22 15 15 14 14 15 14 15 14 14 12 6 10 7 3 6 4 5 3 1 2 2 6 4 5 7 9 13 16 25 26 26 26 25 25 24 23 23 23 22 16 7
12 8 6 9 17 23 25 26 28 27 28 18 14 13 13 15 16 13 15 17 17 17 17 17 18 18 16 16 13 12 12 13 13 14 12 11 12 13 15 15 15 15 13 4 10 8 2 5 6 5 0 4 4 2 5 7 5 5 7 10 10 20 24 24 22 26 23 22 23 23 22 20 15 7
12 12 12 10 19 26 27 27 28 28 28 25 17 12 12 13 19 23 15 16 20 16 17 15 17 14 13 12 12 11 11 11 10 10 11 11 11 11 14 17 17 16 14 6 10 6 5 6 6 5 2 3 2 5 3 4 7 5 5 8 10 10 9 9 9 11 18 22 22 21 19 18 18 11
9 9 11 11 20 30 29 29 29 29 27 28 16 15 24 29 29 20 14 14 12 12 13 13 13 13 13 12 11 11 11 11 10 10 10 9 9 9 10 12 15 15 12 4 12 7 5 4 8 8 4 5 3 4 6 4 4 5 7 7 7 8 10 10 9 8 7 8 10 12 14 18 16 15
11 9 10 12 24 28 29 28 29 27 29 21 16 28 28 28 31 24 13 13 11 10 12 13 13 13 12 12 13 12 12 11 10 10 9 10 10 10 10 10 8 8 9 8 7 5 6 5 8 11 8 6 9 3 3 5 3 3 9 7 8 8 8 9 9 8 7 8 9 18 17 17 16 15
12 13 13 16 28 28 27 28 27 27 24 19 26 27 29 29 26 15 13 10 11 14 13 13 12 12 13 14 13 12 13 13 11 10 10 10 8 7 8 8 8 6 6 8 7 7 7 5 8 8 11 13 12 12 7 4 4 7 8 6 7 7 7 9 9 9 7 7 7 8 8 8 7 10
10 16 24 25 25 25 26 27 26 21 21 26 26 27 28 26 13 12 9 11 13 13 13 11 12 12 13 13 14 13 14 13 11 10 9 7 6 5 5 6 4 4 5 6 7 7 9 7 8 8 7 8 11 9 11 11 8 6 8 12 7 5 7 8 9 8 7 6 7 7 7 6 6 4
21 21 21 23 23 21 19 16 13 12 15 25 27 26 23 13 12 9 11 12 13 12 11 12 12 12 12 11 13 14 12 9 10 10 10 10 10 6 5 7 6 4 5 7 6 6 3 2 5 8 8 5 5 10 11 13 7 7 7 8 9 8 5 7 7 4 6 5 6 7 6 5 5 4
10 14 15 14 19 16 22 21 19 17 18 14 12 12 11 9 8 12 11 12 12 12 13 14 14 11 13 12 12 12 11 10 10 8 8 8 9 6 4 3 7 5 5 6 7 7 3 3 4 7 9 7 6 7 7 9 13 10 7 7 9 10 7 6 6 5 5 6 6 6 6 5 5 5
11 10 12 14 9 9 9 9 8 9 9 8 9 8 10 12 13 13 16 15 10 10 11 12 12 13 14 13 12 11 9 10 10 8 6 7 8 3 2 3 5 3 4 6 7 9 8 7 6 6 5 6 10 9 7 7 9 10 9 6 7 7 8 8 7 5 6 7 7 6 4 4 4 4
8 7 7 9 10 10 12 13 13 12 13 14 12 13 11 12 12 12 10 11 11 12 10 12 13 13 14 13 13 12 12 10 10 6 6 6 5 3 1 4 3 3 2 4 5 6 7 9 11 10 10 10 7 8 13 10 6 6 9 8 8 8 7 6 6 6 5 6 6 6 5 4 3 4
7 8 9 9 9 10 11 12 13 14 13 13 15 13 16 15 14 13 12 12 13 14 14 14 13 13 13 12 13 13 12 11 10 6 4 5 2 3 3 3 1 2 3 3 4 5 6 8 10 11 12 12 13 11 6 8 11 8 7 7 8 9 7 7 6 4 3 4 8 7 5 4 4 3
8 9 10 11 11 10 10 10 11 12 12 14 14 14 16 13 14 15 14 14 15 17 16 15 13 12 12 13 13 12 11 11 11 7 2 1 2 3 2 2 1 1 2 3 3 2 5 7 9 10 9 8 9 10 16 8 8 9 7 6 6 9 8 7 7 6 8 7 6 8 6 4 4 3
9 9 10 10 10 12 12 11 12 11 11 12 12 12 13 15 13 14 15 16 15 16 16 15 15 13 14 13 12 11 12 11 10 7 4 2 2 0 1 1 2 2 2 2 2 1 1 5 6 10 9 6 6 7 5 11 6 4 10 8 6 8 7 7 6 5 6 6 4 7 7 6 4 3
7 7 8 9 9 10 11 12 12 12 11 12 11 11 12 14 14 13 14 19 15 14 14 14 14 13 13 14 13 11 11 10 9 7 4 1 0 1 2 2 3 3 3 2 2 1 1 3 3 7 9 8 8 6 3 4 8 8 5 10 7 5 9 8 7 6 3 4 4 2 5 7 5 4
7 7 7 7 7 8 9 10 9 10 11 10 11 12 11 11 11 13 14 14 15 14 14 14 15 14 13 13 12 12 12 10 6 5 3 1 1 1 2 3 3 3 3 2 2 2 2 1 2 3 7 9 9 8 7 2 4 5 5 6 10 8 7 8 7 7 5 3 4 3 4 6 4 4
7 8 8 8 8 8 9 9 10 11 12 11 12 10 13 12 12 12 14 15 14 14 15 15 14 14 14 13 13 11 11 10 8 5 3 2 1 2 3 3 3 2 3 3 2 3 3 3 1 1 1 6 9 9 10 10 5 5 7 9 8 10 6 7 8 6 6 5 5 5 5 2 4 5
7 7 7 7 8 8 8 9 9 9 10 10 10 11 11 13 11 12 14 15 14 15 15 16 16 14 12 11 12 11 10 9 7 5 3 0 1 2 3 3 4 4 4 4 3 3 5 6 5 6 9 9 9 10 9 11 9 8 7 8 5 2 7 9 8 8 6 4 5 7 6 3 2 3
7 7 7 7 8 8 9 9 8 9 9 10 10 11 12 11 12 12 12 14 15 15 14 15 13 14 13 13 11 11 10 9 6 4 1 1 2 3 5 5 4 3 4 4 4 5 5 3 3 12 14 12 12 11 11 10 9 5 6 5 8 10 7 5 8 8 7 5 5 7 6 5 3 2
6 7 7 7 8 8 8 9 9 9 9 9 9 10 10 11 11 17 16 17 15 15 13 14 13 13 13 12 12 10 9 8 6 4 1 1 3 3 4 3 4 3 4 4 4 4 1 1 3 7 10 10 8 8 9 9 9 9 6 5 4 8 11 11 7 7 10 9 9 8 4 3 3 3
6 7 8 8 7 8 8 9 9 9 10 10 10 11 11 11 11 12 11 11 12 11 11 12 12 12 11 11 10 10 8 7 5 3 1 1 2 4 3 3 3 4 6 6 3 3 3 2 3 4 4 4 4 7 12 8 7 7 8 9 6 5 5 9 13 15 13 9 6 4 4 6 7 4
6 7 8 8 8 9 9 8 9 9 10 10 10 10 10 11 13 12 10 11 11 12 11 12 12 12 11 11 10 9 6 5 4 2 2 2 2 3 4 5 6 7 6 6 6 5 6 6 5 3 5 5 5 10 12 11 9 8 8 7 5 6 6 5 6 9 9 9 9 8 9 7 2 5
6 7 8 8 8 8 8 8 8 9 9 10 10 11 11 11 11 11 11 11 11 11 12 11 12 12 12 11 10 8 6 5 4 3 3 2 3 4 5 6 6 6 6 5 7 7 6 5 5 6 7 6 5 8 8 9 10 9 7 7 7 5 4 2 5 6 5 4 7 6 3 4 8 12
Wind_Direction
9 358 0 347 336 339 335 319 321 324 324 330 301 277 296 311 307 315 308 306 318 307 309 304 264 209 272 270 271 292 279 269 274 278 274 276 281 279 277 279 275 277 277 281 289 295 292 288 278 279 283 288 291 291 292 290 285 283 283 282 283 284 284 287 291 292 284 238 170 157 154 153 154 155
357 357 329 331 313 315 312 318 314 308 303 296 311 319 316 312 289 285 295 295 301 299 294 209 283 292 280 292 291 262 274 289 285 285 284 283 281 282 280 273 272 276 286 292 295 292 288 283 283 283 283 288 291 293 293 287 285 285 285 286 287 287 287 287 287 288 258 184 164 159 162 160 158 161
353 337 317 310 301 311 314 309 310 304 306 297 289 269 251 256 258 277 278 291 289 262 297 296 257 297 299 289 293 296 283 282 280 275 272 274 273 272 271 270 273 277 285 288 287 285 282 279 279 286 288 286 289 291 291 288 289 287 287 287 286 285 285 283 282 280 234 186 170 163 163 164 164 163
321 317 313 300 298 300 303 297 292 292 283 288 299 299 297 294 297 296 291 277 283 294 288 292 295 281 289 295 287 283 283 276 275 273 270 271 274 272 273 273 273 276 279 282 278 274 278 280 281 280 283 284 288 291 289 287 287 286 284 283 282 283 280 276 272 271 223 183 165 163 168 165 165 166
303 309 310 305 295 292 294 288 290 285 281 285 275 273 274 271 264 270 278 280 285 293 281 259 286 297 302 294 287 285 287 289 280 280 277 273 271 275 275 276 275 272 272 274 275 276 276 276 273 275 278 281 284 286 286 286 285 284 282 280 281 278 277 271 269 270 204 181 166 169 172 171 164 157
313 308 307 302 296 289 281 289 288 281 285 277 275 266 263 267 265 249 267 272 282 288 302 300 281 281 276 284 291 293 294 296 298 288 285 283 279 277 274 276 274 272 269 272 276 274 272 270 272 274 278 277 281 283 285 285 285 284 281 278 274 272 270 272 268 257 192 183 172 171 167 160 162 163
318 321 305 297 296 297 298 290 286 286 280 271 266 268 260 265 265 253 243 266 277 282 287 293 299 296 296 275 292 298 293 286 287 293 292 287 281 273 271 269 272 271 273 277 276 275 273 271 271 274 276 277 278 279 281 281 281 281 280 278 275 271 271 265 260 213 189 187 176 163 160 164 160 160
321 312 313 301 307 309 302 297 300 294 278 278 276 274 268 262 267 257 253 247 262 278 288 291 293 294 303 295 289 293 292 289 288 284 289 286 279 280 277 265 267 270 276 274 272 271 269 267 271 274 275 277 279 281 280 280 280 278 277 277 277 272 267 258 209 178 184 172 157 163 161 160 163 168
299 301 292 295 306 311 305 302 304 304 305 296 287 282 281 272 268 266 255 257 257 269 274 283 287 293 287 284 292 293 301 301 293 286 282 283 284 284 277 265 263 265 271 268 266 268 274 275 270 271 275 277 280 281 281 279 277 277 278 278 276 270 246 195 171 163 163 163 159 159 163 166 165 159
292 286 291 296 301 304 298 296 298 299 296 299 292 285 284 280 276 274 269 262 261 261 268 274 288 287 291 298 290 296 290 289 298 301 295 290 281 279 282 268 262 255 261 256 259 268 272 273 273 271 271 277 280 279 276 275 276 279 281 278 260 212 169 157 150 152 151 145 154 167 167 158 150 151
294 289 290 295 296 294 292 292 294 299 299 294 287 283 284 284 284 279 277 274 269 266 272 271 265 281 281 282 293 298 298 289 281 290 294 293 295 291 277 283 275 272 259 249 257 255 258 266 270 272 275 274 273 271 273 274 276 277 276 248 183 154 143 139 142 141 140 153 161 154 150 148 149 152
298 293 291 289 289 285 286 287 290 293 295 297 294 289 278 283 289 288 288 283 275 274 270 268 279 272 279 285 266 286 295 293 289 272 290 294 301 301 296 286 291 282 275 267 259 261 262 264 269 273 272 273 271 273 277 277 273 270 246 204 160 141 134 138 141 145 154 153 151 151 145 143 148 151
299 295 288 287 287 285 284 285 285 287 287 294 299 300 299 291 286 289 290 288 286 278 274 278 271 278 282 280 290 297 295 297 297 304 297 290 290 292 289 286 278 279 276 267 261 260 242 251 261 258 268 266 271 274 271 271 269 238 196 168 145 143 147 150 152 151 147 148 145 141 140 141 142 141
298 296 301 295 290 293 294 294 294 291 292 289 283 289 300 301 300 296 296 293 289 284 284 282 288 288 284 287 291 290 288 293 296 293 293 291 294 290 286 278 274 279 255 266 264 251 239 230 255 257 257 268 268 267 269 259 231 193 183 161 145 153 155 150 145 142 142 137 134 133 134 134 134 133
310 308 301 300 302 299 296 294 291 287 294 298 296 293 289 286 288 297 294 291 294 292 284 283 284 281 283 288 290 287 292 287 285 285 284 289 295 298 301 299 295 263 249 244 265 263 236 204 244 250 251 263 265 259 250 249 209 181 169 156 157 154 148 142 140 136 133 132 132 134 135 136 134 133
309 314 317 314 300 292 295 304 303 298 294 302 301 297 293 291 286 278 281 289 290 286 288 289 284 288 287 291 290 288 289 295 292 284 282 284 287 291 286 284 288 300 199 263 273 278 244 190 236 256 256 252 257 253 254 234 200 183 173 165 159 151 144 140 137 134 133 134 134 135 137 137 137 134
320 320 320 321 319 307 308 311 306 308 306 307 305 300 297 295 296 295 293 284 277 286 284 286 288 286 294 291 290 291 291 290 288 287 283 278 271 266 273 277 282 283 266 271 279 284 273 163 229 247 252 250 259 259 248 230 198 181 171 163 154 145 140 137 135 134 136 136 136 137 138 138 134 129
326 322 323 322 321 324 321 310 313 315 316 318 321 321 318 313 308 306 303 297 288 281 280 283 283 285 284 285 288 291 292 290 284 285 281 285 291 294 289 287 283 282 280 271 281 276 274 169 235 247 258 291 268 252 243 223 196 177 166 156 149 146 142 138 137 138 138 139 139 139 137 135 131 127
321 320 317 319 318 323 328 329 331 330 325 322 319 317 314 311 308 304 304 300 297 293 285 281 281 286 287 287 289 290 290 289 293 297 300 297 291 288 285 279 273 274 263 257 250 265 277 141 227 249 272 285 277 265 252 210 182 169 158 152 148 145 141 140 139 140 142 142 142 140 138 136 134 132
322 321 328 332 327 323 322 325 330 330 326 319 316 313 311 308 306 302 302 305 304 299 296 291 288 288 289 286 291 291 291 293 295 294 295 296 294 292 285 281 285 281 279 209 232 248 262 153 205 316 339 292 272 271 287 194 176 161 153 149 146 143 142 141 141 143 143 143 141 139 136 135 134 134
334 338 337 331 323 320 320 324 328 330 330 320 313 308 305 304 305 305 307 304 306 307 303 301 299 296 299 295 298 294 294 297 298 298 293 289 293 289 285 286 288 284 292 218 219 240 260 157 155 112 4 348 342 342 311 220 169 156 151 147 146 144 141 142 143 143 143 141 138 137 136 134 133 133
330 330 333 329 324 323 321 325 327 329 330 318 311 305 308 307 305 307 309 308 304 300 299 297 295 294 293 296 293 291 290 289 288 284 284 285 288 286 284 284 284 289 285 266 181 225 234 121 129 98 342 25 6 348 329 262 160 152 147 146 145 144 144 142 141 141 140 138 138 137 136 135 123 115
332 333 338 338 336 328 323 325 326 326 327 318 313 311 307 308 305 306 308 306 307 311 309 306 305 300 294 290 283 281 284 284 282 275 274 282 284 287 288 287 286 282 276 260 167 220 198 143 182 140 120 2 315 27 336 325 131 138 137 142 144 143 141 140 139 139 139 138 138 138 131 122 109 100
332 334 330 333 332 328 326 325 324 324 325 321 315 314 310 306 304 309 311 313 311 306 302 298 299 295 293 291 286 281 279 278 272 273 268 272 277 279 283 280 277 275 277 276 170 214 162 167 173 190 116 144 180 344 357 6 33 91 121 129 135 141 138 136 136 137 136 137 137 133 128 127 116 106
331 332 332 327 329 329 327 326 325 325 324 324 320 316 304 306 314 319 312 309 307 302 301 298 300 297 293 290 287 285 284 280 277 275 271 272 274 276 282 285 284 283 276 267 190 189 178 181 167 163 57 59 61 102 1 18 14 30 93 120 126 124 114 111 115 125 133 132 130 128 130 132 130 126
327 325 320 319 326 328 328 328 327 327 327 327 325 315 318 318 318 318 315 307 302 299 305 305 301 300 299 295 292 291 291 286 281 281 279 280 284 281 283 285 289 290 286 305 198 190 141 172 175 164 137 125 47 93 116 31 2 8 47 63 92 102 109 108 104 106 102 107 115 124 130 132 134 133
323 317 315 314 324 327 329 328 328 327 328 328 321 321 321 321 321 320 308 301 299 308 311 305 303 306 303 303 302 300 299 293 286 289 291 296 297 296 294 291 292 298 299 318 265 225 194 186 171 169 168 146 134 92 80 113 90 67 66 58 68 81 89 98 101 99 97 109 119 128 125 127 131 131
323 321 320 322 326 328 329 328 328 328 328 325 324 324 323 323 322 311 300 299 320 316 304 304 307 309 313 313 311 309 305 299 303 303 296 294 293 289 292 295 302 304 316 304 274 231 221 193 183 190 161 153 152 153 136 25 95 117 111 82 73 85 95 104 107 98 92 89 89 100 101 105 117 130
315 317 322 324 326 327 328 328 327 324 323 323 324 323 322 321 309 303 303 324 317 305 302 301 308 309 312 313 309 306 303 301 301 294 295 284 273 272 272 279 284 327 334 324 302 255 217 203 187 166 162 170 156 155 143 147 142 132 132 121 98 92 103 106 101 105 102 86 98 99 90 102 103 99
322 323 325 326 326 327 326 326 324 323 319 322 322 320 317 308 306 316 329 317 310 303 305 313 311 308 306 305 306 301 296 294 297 303 305 311 305 312 310 311 297 339 344 335 324 299 241 200 171 162 156 150 139 139 137 129 123 129 131 114 112 83 78 100 91 71 89 89 91 88 80 78 90 79
324 328 330 329 327 321 320 319 315 311 311 315 312 314 309 312 327 329 313 301 300 316 322 315 309 307 305 299 298 306 309 307 304 305 298 299 294 312 313 313 297 332 344 351 357 349 22 79 114 149 144 119 85 116 134 128 129 134 119 130 140 138 149 113 101 87 89 94 86 89 87 87 83 64
333 332 328 326 321 317 314 315 315 314 308 304 313 318 331 329 320 308 303 314 322 313 305 300 302 306 311 309 306 304 305 305 301 303 294 286 292 310 323 310 290 338 334 356 6 14 30 40 68 61 68 125 131 122 101 113 130 129 126 120 90 95 117 128 115 91 106 100 88 83 83 89 101 103
332 323 324 327 333 335 336 338 336 337 338 337 336 335 334 331 331 330 334 326 318 318 310 311 311 305 304 303 305 304 302 301 301 301 287 275 268 289 241 268 308 350 3 5 10 31 47 59 56 66 71 61 60 110 130 122 108 123 133 126 119 117 121 117 110 115 108 86 94 104 95 57 65 88
330 333 338 335 334 335 340 341 342 340 340 335 334 333 336 334 330 328 328 324 319 318 318 310 305 305 304 303 304 301 299 298 299 292 266 279 233 250 253 274 357 31 78 55 350 45 80 80 83 75 74 72 62 47 37 125 133 133 119 121 123 124 118 120 114 115 113 125 129 119 108 93 71 45
351 348 345 342 340 342 340 340 338 335 333 334 331 328 327 324 326 325 324 321 320 318 313 312 307 306 304 301 302 301 300 300 303 310 290 248 242 247 256 224 88 97 99 89 75 75 107 112 106 97 85 85 72 45 45 46 129 120 109 98 113 123 124 125 129 118 112 114 118 119 109 96 89 64
352 352 346 344 344 341 338 335 336 332 330 328 326 323 319 319 321 322 317 318 316 311 310 312 315 313 313 306 304 303 305 307 306 304 294 253 243 54 40 58 96 94 93 77 92 30 92 127 128 123 123 116 105 89 11 26 59 115 130 129 119 120 116 118 110 114 117 115 126 136 135 140 139 120
348 347 346 343 339 339 334 330 330 329 327 324 319 316 316 314 314 312 312 315 308 310 310 311 313 315 311 313 312 311 314 318 311 307 286 261 116 110 99 74 85 92 94 57 40 27 49 134 120 131 126 121 123 108 90 330 77 67 120 127 121 116 130 123 122 107 81 111 103 96 134 137 136 122
353 348 342 337 332 327 324 321 322 321 321 320 317 317 313 308 308 311 312 312 313 315 316 318 316 314 313 316 317 319 318 317 308 299 284 207 182 127 122 125 105 92 93 74 43 22 11 77 126 151 143 136 128 123 123 36 75 57 93 128 132 131 127 128 126 125 99 42 96 90 102 112 121 120
350 346 339 332 329 328 325 325 328 325 322 322 322 320 318 316 317 316 319 318 317 318 318 315 314 318 318 317 319 318 317 316 313 301 285 266 178 141 119 121 107 96 108 96 47 22 34 51 40 89 141 151 157 159 143 132 99 95 98 110 129 127 146 139 124 112 119 113 92 73 59 53 114 120
342 333 327 327 323 322 318 320 320 320 317 315 316 317 317 317 316 318 320 321 321 322 317 314 317 319 317 317 318 317 313 308 302 297 293 235 83 113 115 111 126 133 116 114 100 56 47 21 6 354 68 81 83 90 97 95 92 82 87 105 97 90 147 140 136 133 111 115 121 106 96 68 58 330
331 327 320 321 316 318 318 316 313 313 313 314 311 312 312 309 312 316 319 322 321 318 317 313 311 316 317 317 318 317 312 310 306 312 352 48 93 100 126 124 116 138 131 117 81 58 33 339 79 110 104 106 111 113 99 86 82 83 95 93 102 106 101 109 137 141 133 143 112 108 109 113 103 33
322 314 314 316 319 316 316 313 315 313 309 311 309 308 310 313 310 316 319 321 319 318 313 313 314 313 316 317 318 316 310 307 307 317 350 82 99 99 118 118 127 136 132 107 83 52 305 330 85 109 118 128 136 111 104 116 114 103 81 81 65 108 113 116 114 126 138 141 134 116 99 56 37 70
318 312 314 317 316 315 314 313 311 313 312 312 311 311 312 313 315 320 320 318 319 315 312 313 312 313 313 316 316 315 309 309 311 331 9 56 100 120 111 102 88 79 90 86 82 78 76 70 106 106 91 62 42 102 117 106 94 94 92 80 75 37 57 100 121 123 123 109 93 134 168 165 135 170
311 312 310 315 315 314 311 311 311 312 313 312 311 312 315 317 319 318 316 316 316 316 311 312 312 312 314 315 315 312 317 316 333 358 29 46 89 103 106 97 96 108 108 104 101 84 61 40 26 41 82 69 98 114 122 123 116 116 109 102 94 90 93 37 69 99 88 84 100 106 110 114 132 188
309 309 310 312 312 310 309 311 312 314 314 313 315 316 317 315 314 314 312 311 310 310 312 309 311 313 315 315 316 320 326 347 9 27 46 74 83 91 96 111 113 112 113 124 113 95 23 57 50 64 67 69 78 108 114 119 123 126 119 114 107 92 53 42 97 103 80 28 26 54 121 101 102 104